2017-071R

Last updated on Wed Feb 14 2018 16:20:55 GMT+0000 (Greenwich Mean Time)

1 43052U 17071R 18044.94834358 .00002393 00000-0 72840-4 0 9993 2 43052 51.6397 281.4022 0002688 178.6388 181.4604 15.38234051 10592
UTC large
Height (km)
Speed (km/s)
/
Latitude / Longitude
Inclination (degrees)
Orbital Period (minutes)
Azimuth
Elevation
Range (km)
Doppler Factor

Next 0 passes for location: London (51.5072 / 0.1276)

Sorry there are no passes over London.